User: anonymous   Login
Location: Hertford
(51.8000°N, 0.0667°W)
Time: 23:48:17
(UTC+00:00)
Language:

Cosmos 1937 Rocket - Orbit

View from above orbital plane
View from above orbital plane
View from above satellite
View from above satellite

Ground track
Ground track

The orbit data is extracted from the following two-line orbital elements,

1 19039U 88029B   20332.46718525 -.00000045 +00000-0 -61787-5 0  9992
2 19039 074.0450 140.2585 0023776 358.4604 001.6473 14.38490224711630
Epoch (UTC): 27 November 2020 11:12:44
Eccentricity: 0.0023776
inclination: 74.0450°
perigee height: 746 km
apogee height: 780 km
right ascension of ascending node: 140.2585°
argument of perigee: 358.4604°
revolutions per day: 14.38490224
mean anomaly at epoch: 1.6473°
orbit number at epoch: 71163

The dashed part of the orbit path shows where the satellite is in the earth's shadow,  

DLR